Weather History for Glenwood, MN

Change the Weather History Date:

Wednesday, May 13, 2009

  Actual Average Record
Temperature  
Mean Temperature 62 °F -  
Max Temperature 69 °F 68 °F 95 °F (2007)
Min Temperature 55 °F 40 °F 24 °F (1953)
Degree Days  
Heating Degree Days 3    
Growing Degree Days 12 (Base 50)    
Moisture  
Dew Point 45 °F    
Average Humidity 62    
Maximum Humidity 94    
Minimum Humidity 23    
Precipitation  
Precipitation 0.06 in - - ()
Sea Level Pressure  
Sea Level Pressure 29.53 in    
Wind  
Wind Speed 19 mph (SW)    
Max Wind Speed 32 mph    
Max Gust Speed 47 mph    
Visibility 8 miles    
Events Rain    
Averages and records for this station are not official NWS values.
T = Trace of Precipitation, MM = Missing Value Source: NWS Daily Summary

Daily Weather History Graph

Daily Weather History Graph

Search for Another Location

Airport:

Trip Planner

Search our weather history database for the weather conditions in past years. The results will help you decide how hot, cold, wet, or windy it might be!

Date:

Astronomy

May. 13, 2009 Rise Set
Actual Time 5:52 AM CDT 8:43 PM CDT
Civil Twilight 5:17 AM CDT 9:18 PM CDT
Nautical Twilight 4:33 AM CDT 10:02 PM CDT
Astronomical Twilight 3:42 AM CDT 10:54 PM CDT
Moon 12:28 AM CDT (5/13) 8:57 AM CDT (5/13)
Length of Visible Light 16h 00m
Length of Day
14h 51m
Waning Gibbous, 82% of the Moon is Illuminated
May 13
Waning Gibbous
May 17
Last Quarter
May 24
New
May 30
First Quarter
Jun 7
Full

Hourly Weather History & Observations

Time (CDT) Temp. Windchill Dew Point Humidity Pressure Visibility Wind Dir Wind Speed Gust Speed Precip Events Conditions
12:13 AM 55.4 °F - 53.6 °F 94% 29.58 in 3.0 mi SSE 15.0 mph - 0.01 in   Drizzle
12:33 AM 55.4 °F - 53.6 °F 94% 29.56 in 3.0 mi SSE 15.0 mph 18.4 mph 0.01 in Rain Rain
12:53 AM 55.4 °F - 53.6 °F 94% 29.53 in 4.0 mi SSE 20.7 mph 25.3 mph 0.01 in Rain Light Rain
1:13 AM 57.2 °F - 53.6 °F 88% 29.56 in 2.5 mi SSE 23.0 mph 28.8 mph 0.01 in Rain Rain
1:33 AM 57.2 °F - 53.6 °F 88% 29.54 in 4.0 mi SSE 21.9 mph 27.6 mph 0.01 in Rain Light Rain
1:53 AM 57.2 °F - 53.6 °F 88% 29.53 in 5.0 mi SSE 19.6 mph 26.5 mph 0.01 in Rain Light Rain
2:14 AM 57.2 °F - 55.4 °F 94% 29.52 in 5.0 mi SSE 23.0 mph 26.5 mph 0.01 in Rain Rain
2:33 AM 57.2 °F - 55.4 °F 94% 29.51 in 7.0 mi SSE 17.3 mph 23.0 mph 0.02 in Rain Rain
2:53 AM 57.2 °F - 55.4 °F 94% 29.49 in 5.0 mi SSE 21.9 mph 27.6 mph 0.02 in   Overcast
3:14 AM 57.2 °F - 55.4 °F 94% 29.47 in 5.0 mi SSE 18.4 mph 25.3 mph 0.01 in Rain Light Rain
3:33 AM 57.2 °F - 55.4 °F 94% 29.44 in 5.0 mi SSE 24.2 mph 33.4 mph 0.02 in   Overcast
3:53 AM 57.2 °F - 55.4 °F 94% 29.48 in 5.0 mi South 20.7 mph 28.8 mph 0.02 in   Overcast
4:14 AM 57.2 °F - 55.4 °F 94% 29.47 in 5.0 mi South 18.4 mph 29.9 mph N/A   Overcast
4:33 AM 57.2 °F - 55.4 °F 94% 29.48 in 5.0 mi South 23.0 mph 31.1 mph N/A   Overcast
4:53 AM 57.2 °F - 55.4 °F 94% 29.47 in 5.0 mi South 24.2 mph 29.9 mph N/A   Overcast
5:14 AM 59.0 °F - 55.4 °F 88% 29.48 in 7.0 mi SSW 18.4 mph 24.2 mph N/A   Overcast
5:33 AM 59.0 °F - 55.4 °F 88% 29.48 in 7.0 mi SSW 20.7 mph 25.3 mph N/A   Overcast
5:53 AM 59.0 °F - 55.4 °F 88% 29.48 in 7.0 mi SSW 17.3 mph 20.7 mph N/A   Overcast
6:33 AM 59.0 °F - 55.4 °F 88% 29.49 in 7.0 mi SW 18.4 mph - N/A   Overcast
6:53 AM 59.0 °F - 53.6 °F 82% 29.50 in 7.0 mi WSW 19.6 mph 25.3 mph N/A   Mostly Cloudy
7:14 AM 57.2 °F - 51.8 °F 82% 29.51 in 10.0 mi West 24.2 mph - N/A   Mostly Cloudy
7:33 AM 55.4 °F - 50.0 °F 82% 29.51 in 10.0 mi West 15.0 mph - N/A   Scattered Clouds
7:53 AM 55.4 °F - 50.0 °F 82% 29.52 in 10.0 mi West 16.1 mph - N/A   Clear
8:13 AM 55.4 °F - 50.0 °F 82% 29.52 in 10.0 mi WSW 13.8 mph - N/A   Clear
8:33 AM 55.4 °F - 48.2 °F 77% 29.53 in 10.0 mi SW 15.0 mph - N/A   Clear
8:53 AM 57.2 °F - 50.0 °F 77% 29.53 in 10.0 mi SW 15.0 mph - N/A   Clear
9:14 AM 57.2 °F - 48.2 °F 72% 29.53 in 10.0 mi SW 13.8 mph - N/A   Clear
9:33 AM 60.8 °F - 48.2 °F 63% 29.53 in 10.0 mi WSW 15.0 mph - N/A   Clear
9:53 AM 60.8 °F - 48.2 °F 63% 29.53 in 10.0 mi WSW 17.3 mph - N/A   Clear
10:13 AM 60.8 °F - 48.2 °F 63% 29.54 in 10.0 mi SW 16.1 mph 21.9 mph N/A   Clear
10:33 AM 62.6 °F - 50.0 °F 63% 29.54 in 10.0 mi SW 13.8 mph 20.7 mph N/A   Scattered Clouds
10:53 AM 62.6 °F - 50.0 °F 63% 29.54 in 10.0 mi SW 15.0 mph 23.0 mph N/A   Clear
11:14 AM 64.4 °F - 48.2 °F 56% 29.54 in 10.0 mi WSW 17.3 mph - N/A   Scattered Clouds
11:33 AM 64.4 °F - 46.4 °F 52% 29.54 in 10.0 mi WSW 18.4 mph 23.0 mph N/A   Scattered Clouds
11:53 AM 64.4 °F - 46.4 °F 52% 29.54 in 10.0 mi WSW 16.1 mph - N/A   Clear
12:13 PM 66.2 °F - 46.4 °F 49% 29.54 in 10.0 mi WSW 17.3 mph 21.9 mph N/A   Clear
12:33 PM 66.2 °F - 44.6 °F 46% 29.54 in 10.0 mi WSW 18.4 mph 21.9 mph N/A   Clear
12:53 PM 66.2 °F - 42.8 °F 43% 29.53 in 10.0 mi WSW 16.1 mph 24.2 mph N/A   Clear
1:13 PM 69.8 °F - 39.2 °F 33% 29.53 in 10.0 mi WSW 18.4 mph 24.2 mph N/A   Clear
1:33 PM 69.8 °F - 39.2 °F 33% 29.53 in 10.0 mi West 17.3 mph 25.3 mph N/A   Clear
1:53 PM 69.8 °F - 37.4 °F 31% 29.53 in 10.0 mi West 19.6 mph 25.3 mph N/A   Clear
2:13 PM 69.8 °F - 35.6 °F 28% 29.54 in 10.0 mi West 21.9 mph 29.9 mph N/A   Scattered Clouds
2:33 PM 69.8 °F - 33.8 °F 27% 29.54 in 10.0 mi WSW 23.0 mph 29.9 mph N/A   Mostly Cloudy
2:53 PM 69.8 °F - 32.0 °F 25% 29.54 in 10.0 mi West 20.7 mph 31.1 mph N/A   Scattered Clouds
3:13 PM 68.0 °F - 30.2 °F 24% 29.55 in 10.0 mi West 26.5 mph 33.4 mph N/A   Scattered Clouds
3:33 PM 69.8 °F - 30.2 °F 23% 29.55 in 10.0 mi WSW 21.9 mph 27.6 mph N/A   Scattered Clouds
3:53 PM 66.2 °F - 30.2 °F 26% 29.55 in 10.0 mi WSW 23.0 mph 31.1 mph N/A   Scattered Clouds
4:13 PM 66.2 °F - 30.2 °F 26% 29.55 in 10.0 mi West 26.5 mph 32.2 mph N/A   Scattered Clouds
4:33 PM 66.2 °F - 30.2 °F 26% 29.56 in 10.0 mi West 24.2 mph 33.4 mph N/A   Scattered Clouds
4:53 PM 66.2 °F - 28.4 °F 24% 29.57 in 10.0 mi West 25.3 mph 33.4 mph N/A   Scattered Clouds
5:13 PM 64.4 °F - 28.4 °F 26% 29.57 in 10.0 mi West 29.9 mph 38.0 mph N/A   Clear
5:33 PM 60.8 °F - 33.8 °F 36% 29.58 in 10.0 mi West 21.9 mph 29.9 mph N/A   Scattered Clouds
5:53 PM 62.6 °F - 28.4 °F 27% 29.59 in 10.0 mi West 29.9 mph 36.8 mph N/A   Clear
6:14 PM 62.6 °F - 26.6 °F 26% 29.60 in 10.0 mi West 29.9 mph 39.1 mph N/A   Clear
6:33 PM 60.8 °F - 23.0 °F 23% 29.61 in 10.0 mi West 21.9 mph 35.7 mph N/A   Clear
6:53 PM 59.0 °F - 26.6 °F 29% 29.62 in 10.0 mi West 32.2 mph 47.2 mph N/A   Scattered Clouds
7:13 PM 57.2 °F - 26.6 °F 31% 29.63 in 10.0 mi West 26.5 mph 36.8 mph N/A   Scattered Clouds
7:33 PM 57.2 °F - 26.6 °F 31% 29.62 in 10.0 mi West 21.9 mph 28.8 mph N/A   Scattered Clouds
7:53 PM 55.4 °F - 26.6 °F 33% 29.62 in 10.0 mi West 15.0 mph 20.7 mph N/A   Clear
8:14 PM 55.4 °F - 28.4 °F 36% 29.62 in 10.0 mi West 16.1 mph 21.9 mph N/A   Clear
8:33 PM 53.6 °F - 28.4 °F 38% 29.61 in 10.0 mi West 10.4 mph - N/A   Clear
8:53 PM 53.6 °F - 30.2 °F 41% 29.62 in 10.0 mi West 8.1 mph - N/A   Mostly Cloudy
9:13 PM 53.6 °F - 32.0 °F 44% 29.61 in 10.0 mi WSW 10.4 mph - N/A   Scattered Clouds
9:33 PM 53.6 °F - 33.8 °F 47% 29.63 in 10.0 mi WNW 20.7 mph 32.2 mph N/A   Mostly Cloudy
9:53 PM 51.8 °F - 33.8 °F 50% 29.64 in 10.0 mi West 21.9 mph 29.9 mph N/A   Scattered Clouds
10:13 PM 51.8 °F - 35.6 °F 54% 29.65 in 10.0 mi West 21.9 mph 34.5 mph N/A   Clear
10:33 PM 50.0 °F - 35.6 °F 58% 29.66 in 10.0 mi West 23.0 mph 33.4 mph N/A   Clear
10:53 PM 48.2 °F - 35.6 °F 62% 29.67 in 10.0 mi West 21.9 mph 29.9 mph N/A   Clear
11:14 PM 48.2 °F - 37.4 °F 66% 29.68 in 10.0 mi West 24.2 mph 31.1 mph N/A   Scattered Clouds
11:33 PM 46.4 °F 38.3 °F 35.6 °F 66% 29.69 in 10.0 mi West 23.0 mph 35.7 mph N/A   Mostly Cloudy
11:53 PM 46.4 °F 39.0 °F 35.6 °F 66% 29.70 in 10.0 mi West 19.6 mph 33.4 mph N/A   Overcast